Weather in Adamovo

Russia / Republic of Buryatia     53°28′51″N   109°18′08″E
temp.,
°C
wind,
m/s
gust,
m/s
humid.,
%
clouds,
%
prec.,
mm/h
press.,
hPa
HPBL,
m
11 april, sun
sun1123:00−10nw12925 0.0 103236
02:00−11nnw119535 0.0 103325
05:00−12nnw119652 0.0 103528
08:00−8nw267614 0.0 1035672
11:00−5nw585326 0.0 10351167
14:00−4nnw69465 0.0 10351242
17:00−4nw610440 0.0 10341323
20:00−7wnw38591 0.0 1036642
12 april, mon
mon1223:00−9nw24692 0.0 1036179
02:00−10nnw11771 0.0 103741
05:00−11nne11804 0.0 103624
08:00−7wsw126216 0.0 1036307
11:00−4w2347100 0.0 10321059
14:00−2w3346100 0.0 10301206
17:00−2wnw235290 0.0 1028848
20:00−6nw11735 0.0 102920
13 april, tue
tue1323:00−8n11755 0.0 102933
02:00−8ne11775 0.0 102925
05:00−9ene118116 0.0 102815
08:00−5sw01675 0.0 1026232
11:00−1w236284 0.0 1022758
14:00+1w3557100 0.0 10191122
17:000wsw256599 0.0 1016602
20:00−2wsw019799 0.6 101673
14 april, wed
wed1423:00−3w1410094 1.4 1016180
02:00−3nw139372 1.4 1016223
05:00−6nnw119676 0.0 101728
08:00−2wsw247680 0.0 1017364
11:00+1w355754 0.0 10161317
14:00+2wnw354883 0.2 10141764
17:00+1w345147 0.2 10141182
20:00−3sw118471 0.2 101513
15 april, thu
thu1523:00−4ssw128889 0.1 101449
02:00−3sw248991 0.3 1014310
05:00−5wsw268693 0.1 1014276
08:00−3wsw2585100 0.5 1013597
11:000wnw3559100 0.3 10121483
14:00+1nw5646100 0.6 10122041
17:00+1nw58454 0.0 10121676
20:00−4wnw22745 0.1 101536